Regional Weather Roundup
Issued by NWS

Home | Current Version | Previous Version | Graphics & Text | Print | Product List | Glossary On
Versions: 1 2 3 4 5 6 7 8 9 10 11 12 13 14 15 16 17 18 19 20 21 22 23 24 25 26 27 28 29 30 31 32 33 34 35 36 37 38 39 40 41 42 43 44 45 46 47 48 49 50
000
ASUS43 KBIS 291710
RWRND

NORTH DAKOTA REGIONAL WEATHER ROUNDUP
NATIONAL WEATHER SERVICE BISMARCK ND
1200 PM CDT FRI JUL 29 2016

NOTE: "FAIR" INDICATES FEW OR NO CLOUDS BELOW 12,000 FEET WITH NO
SIGNIFICANT WEATHER AND/OR OBSTRUCTIONS TO VISIBILITY.


NDZ001>003-009>011-017-291800-
NORTHWEST NORTH DAKOTA

CITY           SKY/WX    TMP DP  RH WIND       PRES   REMARKS
WILLISTON      SUNNY     75  54  47 MISG      30.07F
MINOT          MOSUNNY   78  60  53 E8        30.07F
MINOT AFB      PTSUNNY   74  60  61 S10       30.06F
$$

NDZ018>021-031>035-040>046-291800-
SOUTHWEST NORTH DAKOTA

CITY           SKY/WX    TMP DP  RH WIND       PRES   REMARKS
BISMARCK       PTSUNNY   78  59  51 CALM      30.08F
DICKINSON      PTSUNNY   69  58  67 S7        30.08F
GARRISON         N/A     73  61  65 W3        30.07F
HETTINGER ARPT PTSUNNY   75  56  51 VRB5      30.11F
$$

NDZ004>008-012>016-024-026-027-054-291800-
NORTHEAST NORTH DAKOTA

CITY           SKY/WX    TMP DP  RH WIND       PRES   REMARKS
GRAND FORKS    PTSUNNY   75  56  51 N7        30.08S
GRND FRKS AFB  CLOUDY    74  56  53 E5        30.09S
DEVILS LAKE    PTSUNNY   73  59  61 SW6       30.10S
$$

NDZ022-023-025-028>030-036>039-047>053-291800-
SOUTHEAST NORTH DAKOTA

CITY           SKY/WX    TMP DP  RH WIND       PRES   REMARKS
FARGO          CLOUDY    76  58  53 N3        30.08S
JAMESTOWN      SUNNY     74  60  61 S8        30.09F
$$





USA.gov is the U.S. government's official web portal to all federal, state and local government web resources and services.